This is the latest recevied weather packets stored in our database for station/object KI4HRG. If no packets are shown the sender has not sent any weather packets the latest 10 day(s).
| Time | Temp. | Humidity | Pressure | Rain* | Wind** | Luminosity | Snow |
|---|---|---|---|---|---|---|---|
| 1778019381 | 25° C | 60% | 1012 hPa | 0 mm | - | 86 W/m² | - |
| 1778019077 | 25° C | 60% | 1012.1 hPa | 0 mm | - | 115 W/m² | - |
| 1778018775 | 25° C | 59% | 1012 hPa | 0 mm | - | 144 W/m² | - |
| 1778018472 | 25° C | 60% | 1012 hPa | 0 mm | - | 159 W/m² | - |
| 1778018170 | 24.44° C | 60% | 1012.1 hPa | 0 mm | - | 108 W/m² | - |
| 1778017868 | 25° C | 59% | 1012.1 hPa | 0 mm | - | 90 W/m² | - |
| 1778017566 | 25° C | 58% | 1012.3 hPa | 0 mm | - | 97 W/m² | - |
| 1778017262 | 25° C | 58% | 1012.2 hPa | 0 mm | - | 139 W/m² | - |
| 1778016960 | 25° C | 59% | 1012.2 hPa | 0 mm | - | 177 W/m² | - |
| 1778016656 | 25° C | 59% | 1012 hPa | 0 mm | - | 184 W/m² | - |
| 1778016352 | 25° C | 59% | 1012.3 hPa | 0 mm | - | 154 W/m² | - |
| 1778016050 | 25° C | 59% | 1012.1 hPa | 0 mm | - | 162 W/m² | - |
| 1778015747 | 25° C | 58% | 1012 hPa | 0 mm | - | 150 W/m² | - |
| 1778015444 | 25.56° C | 58% | 1012.1 hPa | 0 mm | - | 175 W/m² | - |
| 1778015140 | 25.56° C | 58% | 1012.2 hPa | 0 mm | - | 344 W/m² | - |
| 1778014838 | 26.11° C | 57% | 1011.9 hPa | 0 mm | - | 327 W/m² | - |
| 1778014535 | 25.56° C | 56% | 1012 hPa | 0 mm | - | 466 W/m² | - |
| 1778014232 | 25.56° C | 55% | 1012.3 hPa | 0 mm | - | 248 W/m² | - |
| 1778013930 | 25.56° C | 57% | 1012.1 hPa | 0 mm | - | 453 W/m² | - |
| 1778013627 | 25° C | 58% | 1012.3 hPa | 0 mm | - | 441 W/m² | - |
| 1778013324 | 26.11° C | 56% | 1012.4 hPa | 0 mm | - | 354 W/m² | - |
| 1778013021 | 26.11° C | 56% | 1012.4 hPa | 0 mm | - | 652 W/m² | - |
| 1778012717 | 25.56° C | 55% | 1012.3 hPa | 0 mm | - | 640 W/m² | - |
| 1778012413 | 25.56° C | 55% | 1012.4 hPa | 0 mm | - | 596 W/m² | - |
| 1778012110 | 25.56° C | 55% | 1012.2 hPa | 0 mm | - | 682 W/m² | - |
* Rain latest hour (hover to see other rain measurements)
** Current wind speed in m/s (hover to see current wind gust speed)